sat.trackr.live / text

‹ back to catalog

STARLINK-33960

NORAD 63966 · 2025-099Q

PAYLOAD ACTIVE UNKNOWN

§ Identity

Operator
Country
US
Launch date
2025-05-13
Launch site
AFETR
Launch vehicle
Mass (kg)
RCS (m²)

Purposes: comms

External: N2YO · Heavens-Above · Gunter

§ Orbital elements

Epoch: 2026-09-20T23:07:32.651904Z

Period
94.27 min
Inclination
43.0005°
Eccentricity
0.0001244
Mean motion
15.27587878 rev/d
Perigee alt
482.2 km
Apogee alt
483.9 km
Semi-major
6,861.2 km
B*
4.6462e-4
RAAN
153.1765°
Arg perigee
276.2080°
Mean anomaly
83.8630°
Rev number
7,720

§ Raw data

STARLINK-339601 63966U 25099Q   26263.96357236  .00012548  00000+0  46462-3 0  99992 63966  43.0005 153.1765 0001244 276.2080  83.8630 15.27587878 77200

JSON: /api/v1/satellites/63966 · /tle

For live sub-satellite position, see the globe view (requires WebGL).

§ Visibility from observer

Set your observer location to see the next 7 days of passes ≥ 10°. The values pass through the URL so the page stays shareable.

No JS? Fill the form by hand. The geolocation button needs JavaScript.